User: anonymous   Login
Location: Unspecified
(0.0000°N, 0.0000°E)
Time: 22:52:06
(UTC+00:00)
Language:

XIAOXIANG 2 - Orbit

View from above orbital plane
View from above orbital plane
View from above satellite
View from above satellite

Ground track
Ground track

The orbit data is extracted from the following two-line orbital elements,

1 43155U 18008A   18344.47673675  .00001074  00000-0  68275-4 0  9994
2 43155  97.5098  55.8306 0016331 257.1853 160.0491 15.10837343 49100
Epoch (UTC): 10 December 2018 11:26:30
Eccentricity: 0.0016331
inclination: 97.5098°
perigee height: 522 km
apogee height: 545 km
right ascension of ascending node: 55.8306°
argument of perigee: 257.1853°
revolutions per day: 15.10837343
mean anomaly at epoch: 160.0491°
orbit number at epoch: 4910

The dashed part of the orbit path shows where the satellite is in the earth's shadow,  

DLR